This is the latest recevied weather packets stored in our database for station/object W5CRT. If no packets are shown the sender has not sent any weather packets the latest 10 day(s).
| Time | Temp. | Humidity | Pressure | Rain* | Wind** | Luminosity | Snow |
|---|---|---|---|---|---|---|---|
| 1778155816 | 12.22° C | 94% | 1018 hPa | 0 mm | - | 44 W/m² | - |
| 1778155512 | 11.67° C | 94% | 1017.9 hPa | 0 mm | - | 43 W/m² | - |
| 1778155210 | 11.67° C | 94% | 1018.1 hPa | 0 mm | - | 33 W/m² | - |
| 1778154906 | 11.67° C | 94% | 1018.2 hPa | 0 mm | - | 25 W/m² | - |
| 1778154601 | 11.11° C | 94% | 1017.7 hPa | 0 mm | - | 20 W/m² | - |
| 1778154298 | 11.11° C | 94% | 1017.7 hPa | 0 mm | - | 12 W/m² | - |
| 1778153995 | 11.11° C | 94% | 1017.6 hPa | 0 mm | - | 7 W/m² | - |
| 1778153692 | 11.11° C | 94% | 1017.5 hPa | 0 mm | - | 4 W/m² | - |
| 1778153389 | 11.67° C | 94% | 1017.6 hPa | 0 mm | - | 2 W/m² | - |
| 1778153087 | 11.67° C | 94% | 1017.1 hPa | 0 mm | - | 1 W/m² | - |
| 1778152783 | 11.67° C | 93% | 1017.4 hPa | 0 mm | - | 0 W/m² | - |
| 1778152481 | 11.67° C | 93% | 1017.1 hPa | 0 mm | - | 0 W/m² | - |
| 1778152177 | 11.67° C | 93% | 1016.8 hPa | 0 mm | - | 0 W/m² | - |
| 1778151873 | 11.67° C | 93% | 1017.1 hPa | 0 mm | - | 0 W/m² | - |
| 1778151570 | 11.67° C | 94% | 1017 hPa | 0 mm | - | 0 W/m² | - |
| 1778151267 | 11.11° C | 94% | 1017 hPa | 0 mm | - | 0 W/m² | - |
| 1778150963 | 11.11° C | 93% | 1017 hPa | 0 mm | - | 0 W/m² | - |
| 1778150661 | 11.11° C | 94% | 1016.7 hPa | 0 mm | - | 0 W/m² | - |
| 1778150356 | 11.11° C | 94% | 1016.5 hPa | 0 mm | - | 0 W/m² | - |
| 1778150053 | 11.11° C | 94% | 1016.6 hPa | 0 mm | - | 0 W/m² | - |
| 1778149749 | 10.56° C | 94% | 1016.3 hPa | 0 mm | - | 0 W/m² | - |
| 1778149446 | 11.11° C | 93% | 1016.5 hPa | 0 mm | - | 0 W/m² | - |
| 1778149143 | 11.11° C | 93% | 1016.4 hPa | 0 mm | - | 0 W/m² | - |
| 1778148843 | 11.11° C | 93% | 1016.5 hPa | 0 mm | - | 0 W/m² | - |
| 1778148540 | 11.11° C | 93% | 1016.5 hPa | 0 mm | - | 0 W/m² | - |
* Rain latest hour (hover to see other rain measurements)
** Current wind speed in m/s (hover to see current wind gust speed)